Felix-Klein-Gymnasium, Gttingen, 150m NN
Wetterdaten: aktuell Samstag, 25.01.2020 10:00
Datum Zeit Temp. A. Feuchte A. Luftdruck Regen Wind Richtung Richtung Sonnenschein Taupunkt Windchill Windben
25.01.2020 10:00 -1,2 C 92 % 1021,5 hPa 0,0 mm 0,4 km/h (0 Bft) S-SO 168 0 min -2,3 C -1,2 C 6,4 km/h (2 Bft)
25.01.2020 09:45 -1,2 C 93 % 1021,5 hPa 0,0 mm 0,0 km/h (0 Bft) S-SW 195 0 min -2,2 C -1,2 C 0,0 km/h (0 Bft)
25.01.2020 09:30 -1,2 C 93 % 1021,5 hPa 0,0 mm 0,2 km/h (0 Bft) S 176 0 min -2,2 C -1,2 C 6,4 km/h (2 Bft)
25.01.2020 09:15 -1,2 C 93 % 1021,5 hPa 0,0 mm 0,7 km/h (0 Bft) SW 231 0 min -2,2 C -1,2 C 9,7 km/h (2 Bft)
25.01.2020 09:00 -1,3 C 93 % 1021,4 hPa 0,0 mm 0,0 km/h (0 Bft) W 273 0 min -2,3 C -1,3 C 0,0 km/h (0 Bft)
25.01.2020 08:45 -1,3 C 93 % 1021,4 hPa 0,0 mm 0,0 km/h (0 Bft) N 0 0 min -2,3 C -1,3 C 0,0 km/h (0 Bft)
25.01.2020 08:30 -1,3 C 93 % 1021,3 hPa 0,0 mm 0,0 km/h (0 Bft) N 0 0 min -2,3 C -1,3 C 0,0 km/h (0 Bft)
25.01.2020 08:15 -1,3 C 93 % 1021,2 hPa 0,0 mm 0,0 km/h (0 Bft) N 0 0 min -2,3 C -1,3 C 0,0 km/h (0 Bft)
25.01.2020 08:00 -1,3 C 93 % 1021,1 hPa 0,0 mm 0,0 km/h (0 Bft) N 0 0 min -2,3 C -1,3 C 0,0 km/h (0 Bft)
25.01.2020 07:45 -1,3 C 93 % 1020,9 hPa 0,0 mm 0,0 km/h (0 Bft) N 0 0 min -2,3 C -1,3 C 0,0 km/h (0 Bft)
25.01.2020 07:30 -1,3 C 94 % 1020,7 hPa 0,0 mm 0,0 km/h (0 Bft) N 0 0 min -2,1 C -1,3 C 0,0 km/h (0 Bft)
25.01.2020 07:15 -1,3 C 94 % 1020,7 hPa 0,0 mm 0,0 km/h (0 Bft) N 0 0 min -2,1 C -1,3 C 0,0 km/h (0 Bft)
25.01.2020 07:00 -1,3 C 93 % 1020,7 hPa 0,0 mm 0,0 km/h (0 Bft) N 0 0 min -2,3 C -1,3 C 0,0 km/h (0 Bft)
25.01.2020 06:45 -1,3 C 93 % 1020,5 hPa 0,0 mm 0,0 km/h (0 Bft) N 0 0 min -2,3 C -1,3 C 0,0 km/h (0 Bft)
25.01.2020 06:30 -1,3 C 93 % 1020,4 hPa 0,0 mm 0,0 km/h (0 Bft) SW 225 0 min -2,3 C -1,3 C 9,7 km/h (2 Bft)
25.01.2020 06:15 -1,3 C 93 % 1020,4 hPa 0,0 mm 1,6 km/h (1 Bft) SW 225 0 min -2,3 C -1,3 C 11,3 km/h (2 Bft)
25.01.2020 06:00 -1,3 C 93 % 1020,3 hPa 0,0 mm 0,0 km/h (0 Bft) N 0 0 min -2,3 C -1,3 C 0,0 km/h (0 Bft)
25.01.2020 05:45 -1,3 C 93 % 1020,4 hPa 0,0 mm 0,0 km/h (0 Bft) SW 225 0 min -2,3 C -1,3 C 8,0 km/h (2 Bft)
25.01.2020 05:30 -1,3 C 93 % 1020,4 hPa 0,0 mm 0,0 km/h (0 Bft) SW 225 0 min -2,3 C -1,3 C 6,4 km/h (2 Bft)
25.01.2020 05:15 -1,3 C 93 % 1020,5 hPa 0,0 mm 1,6 km/h (1 Bft) W-SW 247 0 min -2,3 C -1,3 C 11,3 km/h (2 Bft)
25.01.2020 05:00 -1,3 C 93 % 1020,6 hPa 0,0 mm 1,6 km/h (1 Bft) SW 225 0 min -2,3 C -1,3 C 12,9 km/h (3 Bft)
25.01.2020 04:45 -1,2 C 93 % 1020,6 hPa 0,0 mm 0,0 km/h (0 Bft) N 0 0 min -2,2 C -1,2 C 0,0 km/h (0 Bft)
25.01.2020 04:30 -1,2 C 93 % 1020,5 hPa 0,0 mm 0,0 km/h (0 Bft) N 0 0 min -2,2 C -1,2 C 0,0 km/h (0 Bft)
25.01.2020 04:15 -1,2 C 93 % 1020,6 hPa 0,0 mm 0,0 km/h (0 Bft) SW 225 0 min -2,2 C -1,2 C 8,0 km/h (2 Bft)
25.01.2020 04:00 -1,2 C 93 % 1020,6 hPa 0,0 mm 1,6 km/h (1 Bft) SW 225 0 min -2,2 C -1,2 C 11,3 km/h (2 Bft)
25.01.2020 03:45 -1,2 C 93 % 1020,6 hPa 0,0 mm 3,2 km/h (1 Bft) SW 225 0 min -2,2 C -1,2 C 14,5 km/h (3 Bft)
25.01.2020 03:30 -1,1 C 93 % 1020,6 hPa 0,0 mm 1,6 km/h (1 Bft) SW 225 0 min -2,1 C -1,1 C 12,9 km/h (3 Bft)
25.01.2020 03:15 -1,1 C 93 % 1020,7 hPa 0,0 mm 0,0 km/h (0 Bft) W 270 0 min -2,1 C -1,1 C 4,8 km/h (1 Bft)
25.01.2020 03:00 -1,1 C 93 % 1020,8 hPa 0,0 mm 0,0 km/h (0 Bft) W 270 0 min -2,1 C -1,1 C 4,8 km/h (1 Bft)
25.01.2020 02:45 -1,1 C 92 % 1020,9 hPa 0,0 mm 1,6 km/h (1 Bft) W-SW 247 0 min -2,2 C -1,1 C 9,7 km/h (2 Bft)
25.01.2020 02:30 -1,1 C 92 % 1020,8 hPa 0,0 mm 0,0 km/h (0 Bft) W-SW 247 0 min -2,2 C -1,1 C 11,3 km/h (2 Bft)
25.01.2020 02:15 -1,0 C 92 % 1020,8 hPa 0,0 mm 1,6 km/h (1 Bft) SW 225 0 min -2,1 C -1,0 C 11,3 km/h (2 Bft)
25.01.2020 02:00 -0,9 C 92 % 1021,0 hPa 0,0 mm 0,0 km/h (0 Bft) W-SW 247 0 min -2,0 C -0,9 C 9,7 km/h (2 Bft)
25.01.2020 01:45 -0,9 C 92 % 1021,0 hPa 0,0 mm 0,0 km/h (0 Bft) N 0 0 min -2,0 C -0,9 C 0,0 km/h (0 Bft)
25.01.2020 01:30 -0,9 C 92 % 1021,0 hPa 0,0 mm 0,0 km/h (0 Bft) W-SW 247 0 min -2,0 C -0,9 C 6,4 km/h (2 Bft)
25.01.2020 01:15 -0,9 C 91 % 1021,1 hPa 0,0 mm 0,0 km/h (0 Bft) W-SW 247 0 min -2,2 C -0,9 C 8,0 km/h (2 Bft)
25.01.2020 01:00 -0,8 C 91 % 1021,2 hPa 0,0 mm 0,0 km/h (0 Bft) W-NW 292 0 min -2,1 C -0,8 C 9,7 km/h (2 Bft)
25.01.2020 00:45 -0,8 C 91 % 1021,2 hPa 0,0 mm 0,0 km/h (0 Bft) N 0 0 min -2,1 C -0,8 C 0,0 km/h (0 Bft)
25.01.2020 00:30 -0,7 C 91 % 1021,3 hPa 0,0 mm 0,0 km/h (0 Bft) W 270 0 min -2,0 C -0,7 C 8,0 km/h (2 Bft)
25.01.2020 00:15 -0,7 C 91 % 1021,2 hPa 0,0 mm 0,0 km/h (0 Bft) W 270 0 min -2,0 C -0,7 C 9,7 km/h (2 Bft)
25.01.2020 00:00 -0,7 C 91 % 1021,3 hPa 0,0 mm 0,0 km/h (0 Bft) S-SW 202 0 min -2,0 C -0,7 C 8,0 km/h (2 Bft)
24.01.2020 23:45 -0,7 C 91 % 1021,4 hPa 0,0 mm 1,6 km/h (1 Bft) SW 225 0 min -2,0 C -0,7 C 9,7 km/h (2 Bft)
24.01.2020 23:30 -0,7 C 91 % 1021,6 hPa 0,0 mm 3,2 km/h (1 Bft) SW 225 0 min -2,0 C -0,7 C 12,9 km/h (3 Bft)
24.01.2020 23:15 -0,7 C 91 % 1021,6 hPa 0,0 mm 3,2 km/h (1 Bft) SW 225 0 min -2,0 C -0,7 C 11,3 km/h (2 Bft)
24.01.2020 23:00 -0,7 C 91 % 1021,7 hPa 0,0 mm 3,6 km/h (1 Bft) SW 234 0 min -2,0 C -0,7 C 17,7 km/h (3 Bft)
24.01.2020 22:45 -0,7 C 91 % 1021,7 hPa 0,0 mm 4,0 km/h (1 Bft) W-SW 245 0 min -2,0 C -0,7 C 17,7 km/h (3 Bft)
24.01.2020 22:30 -0,6 C 90 % 1021,8 hPa 0,0 mm 4,0 km/h (1 Bft) SW 214 0 min -2,0 C -0,6 C 17,7 km/h (3 Bft)
24.01.2020 22:15 -0,6 C 90 % 1021,8 hPa 0,0 mm 3,2 km/h (1 Bft) SW 236 0 min -2,0 C -0,6 C 17,7 km/h (3 Bft)
24.01.2020 22:00 -0,6 C 90 % 1021,9 hPa 0,0 mm 1,9 km/h (1 Bft) SW 216 0 min -2,0 C -0,6 C 11,3 km/h (2 Bft)
24.01.2020 21:45 -0,5 C 90 % 1022,0 hPa 0,0 mm 3,3 km/h (1 Bft) S-SW 207 0 min -1,9 C -0,5 C 11,3 km/h (2 Bft)
24.01.2020 21:30 -0,4 C 89 % 1022,0 hPa 0,0 mm 1,0 km/h (0 Bft) W-SW 237 0 min -2,0 C -0,4 C 9,7 km/h (2 Bft)
24.01.2020 21:15 -0,5 C 89 % 1022,0 hPa 0,0 mm 1,1 km/h (1 Bft) W-SW 238 0 min -2,1 C -0,5 C 9,7 km/h (2 Bft)
24.01.2020 21:00 -0,4 C 89 % 1021,9 hPa 0,0 mm 1,4 km/h (1 Bft) SW 232 0 min -2,0 C -0,4 C 9,7 km/h (2 Bft)
24.01.2020 20:45 -0,4 C 89 % 1021,8 hPa 0,0 mm 0,2 km/h (0 Bft) SW 228 0 min -2,0 C -0,4 C 6,4 km/h (2 Bft)
24.01.2020 20:30 -0,4 C 88 % 1021,7 hPa 0,0 mm 0,3 km/h (0 Bft) S 190 0 min -2,1 C -0,4 C 6,4 km/h (2 Bft)
24.01.2020 20:15 -0,4 C 88 % 1021,7 hPa 0,0 mm 0,9 km/h (0 Bft) W 259 0 min -2,1 C -0,4 C 8,0 km/h (2 Bft)
24.01.2020 20:00 -0,3 C 88 % 1021,6 hPa 0,0 mm 0,0 km/h (0 Bft) W 275 0 min -2,0 C -0,3 C 1,6 km/h (1 Bft)
24.01.2020 19:45 -0,3 C 88 % 1021,4 hPa 0,0 mm 0,5 km/h (0 Bft) W 277 0 min -2,0 C -0,3 C 9,7 km/h (2 Bft)
24.01.2020 19:30 -0,3 C 88 % 1021,4 hPa 0,0 mm 0,6 km/h (0 Bft) SW 235 0 min -2,0 C -0,3 C 12,9 km/h (3 Bft)
24.01.2020 19:15 -0,3 C 88 % 1021,3 hPa 0,0 mm 0,5 km/h (0 Bft) W-SW 237 0 min -2,0 C -0,3 C 8,0 km/h (2 Bft)
24.01.2020 19:00 -0,3 C 88 % 1021,2 hPa 0,0 mm 0,8 km/h (0 Bft) S-SW 209 0 min -2,0 C -0,3 C 11,3 km/h (2 Bft)
24.01.2020 18:45 -0,3 C 88 % 1021,0 hPa 0,0 mm 1,3 km/h (1 Bft) SW 216 0 min -2,0 C -0,3 C 11,3 km/h (2 Bft)
24.01.2020 18:30 -0,4 C 88 % 1021,1 hPa 0,0 mm 1,9 km/h (1 Bft) W-SW 247 0 min -2,1 C -0,4 C 11,3 km/h (2 Bft)
24.01.2020 18:15 -0,4 C 88 % 1021,0 hPa 0,0 mm 1,2 km/h (1 Bft) SW 225 0 min -2,1 C -0,4 C 9,7 km/h (2 Bft)
24.01.2020 18:00 -0,3 C 88 % 1021,0 hPa 0,0 mm 0,4 km/h (0 Bft) W-SW 241 0 min -2,0 C -0,3 C 8,0 km/h (2 Bft)
24.01.2020 17:45 -0,3 C 88 % 1021,1 hPa 0,0 mm 0,8 km/h (0 Bft) W 267 0 min -2,0 C -0,3 C 11,3 km/h (2 Bft)
24.01.2020 17:30 -0,3 C 88 % 1021,1 hPa 0,0 mm 0,4 km/h (0 Bft) W-SW 250 0 min -2,0 C -0,3 C 8,0 km/h (2 Bft)
24.01.2020 17:15 -0,3 C 88 % 1021,0 hPa 0,0 mm 1,7 km/h (1 Bft) SW 234 0 min -2,0 C -0,3 C 11,3 km/h (2 Bft)
24.01.2020 17:00 -0,2 C 87 % 1021,2 hPa 0,0 mm 2,6 km/h (1 Bft) SW 231 0 min -2,1 C -0,2 C 12,9 km/h (3 Bft)
24.01.2020 16:45 -0,1 C 87 % 1021,3 hPa 0,0 mm 0,0 km/h (0 Bft) SW 232 0 min -2,0 C -0,1 C 0,0 km/h (0 Bft)
24.01.2020 16:30 0,0 C 87 % 1021,2 hPa 0,0 mm 0,0 km/h (0 Bft) SW 232 0 min -1,9 C 0,0 C 0,0 km/h (0 Bft)
24.01.2020 16:15 0,2 C 86 % 1021,4 hPa 0,0 mm 2,7 km/h (1 Bft) W 279 0 min -1,9 C 0,2 C 11,3 km/h (2 Bft)
24.01.2020 16:00 0,3 C 86 % 1021,4 hPa 0,0 mm 1,5 km/h (1 Bft) W-NW 284 0 min -1,8 C 0,3 C 11,3 km/h (2 Bft)
24.01.2020 15:45 0,3 C 86 % 1021,1 hPa 0,0 mm 3,8 km/h (1 Bft) S-SW 213 0 min -1,8 C 0,3 C 19,3 km/h (3 Bft)
24.01.2020 15:30 0,4 C 87 % 1020,9 hPa 0,0 mm 1,2 km/h (1 Bft) W-SW 238 0 min -1,5 C 0,4 C 12,9 km/h (3 Bft)
24.01.2020 15:15 0,3 C 87 % 1020,9 hPa 0,0 mm 1,5 km/h (1 Bft) W-SW 240 0 min -1,6 C 0,3 C 12,9 km/h (3 Bft)
24.01.2020 15:00 0,3 C 87 % 1021,1 hPa 0,0 mm 2,7 km/h (1 Bft) SW 215 0 min -1,6 C 0,3 C 11,3 km/h (2 Bft)
24.01.2020 14:45 0,4 C 86 % 1021,2 hPa 0,0 mm 4,0 km/h (1 Bft) SW 221 0 min -1,7 C 0,4 C 14,5 km/h (3 Bft)
24.01.2020 14:30 0,7 C 86 % 1021,4 hPa 0,0 mm 0,3 km/h (0 Bft) SW 224 0 min -1,4 C 0,7 C 8,0 km/h (2 Bft)
24.01.2020 14:15 0,7 C 86 % 1021,6 hPa 0,0 mm 1,2 km/h (1 Bft) W 278 0 min -1,4 C 0,7 C 12,9 km/h (3 Bft)
24.01.2020 14:00 0,8 C 86 % 1021,7 hPa 0,0 mm 0,5 km/h (0 Bft) W-NW 285 0 min -1,3 C 0,8 C 9,7 km/h (2 Bft)
24.01.2020 13:45 0,7 C 86 % 1021,6 hPa 0,0 mm 0,7 km/h (0 Bft) W 261 0 min -1,4 C 0,7 C 11,3 km/h (2 Bft)
24.01.2020 13:30 0,7 C 86 % 1021,7 hPa 0,0 mm 1,1 km/h (1 Bft) W-NW 292 0 min -1,4 C 0,7 C 9,7 km/h (2 Bft)
24.01.2020 13:15 0,6 C 87 % 1021,9 hPa 0,0 mm 1,3 km/h (1 Bft) W-NW 286 0 min -1,3 C 0,6 C 9,7 km/h (2 Bft)
24.01.2020 13:00 0,6 C 87 % 1022,1 hPa 0,0 mm 0,9 km/h (0 Bft) W-NW 297 0 min -1,3 C 0,6 C 9,7 km/h (2 Bft)
24.01.2020 12:45 0,6 C 87 % 1022,1 hPa 0,0 mm 1,1 km/h (1 Bft) W-SW 257 0 min -1,3 C 0,6 C 11,3 km/h (2 Bft)
24.01.2020 12:30 0,4 C 88 % 1022,2 hPa 0,0 mm 1,8 km/h (1 Bft) SW 224 0 min -1,3 C 0,4 C 17,7 km/h (3 Bft)
24.01.2020 12:15 0,3 C 89 % 1022,2 hPa 0,0 mm 0,4 km/h (0 Bft) S-SW 203 0 min -1,3 C 0,3 C 8,0 km/h (2 Bft)
24.01.2020 12:00 0,1 C 89 % 1022,2 hPa 0,0 mm 0,3 km/h (0 Bft) S-SO 165 0 min -1,5 C 0,1 C 6,4 km/h (2 Bft)
24.01.2020 11:45 -0,1 C 89 % 1022,1 hPa 0,0 mm 3,2 km/h (1 Bft) S-SW 193 0 min -1,7 C -0,1 C 11,3 km/h (2 Bft)
24.01.2020 11:30 -0,1 C 89 % 1022,2 hPa 0,0 mm 1,3 km/h (1 Bft) S-SW 209 0 min -1,7 C -0,1 C 12,9 km/h (3 Bft)
24.01.2020 11:15 -0,2 C 90 % 1022,5 hPa 0,0 mm 1,5 km/h (1 Bft) S-SW 203 0 min -1,6 C -0,2 C 11,3 km/h (2 Bft)
24.01.2020 11:00 -0,3 C 90 % 1022,6 hPa 0,0 mm 0,3 km/h (0 Bft) S-SO 159 0 min -1,7 C -0,3 C 8,0 km/h (2 Bft)
_ Min-Zeit 05:00 13:30 06:00 - 16:30 - - - 10:00 05:00 16:30
Minimum _ -1,3 C 86 % 1020,3 hPa - 0,0 km/h (0 Bft) - - - -2,3 C -1,3 C 0,0 km/h (0 Bft)
_ Max-Zeit 13:45 07:15 11:00 11:00 14:45 - - 11:00 14:00 14:00 15:45
Maximum _ 0,8 C 94 % 1022,6 hPa 0,0 mm 4,0 km/h
SW (1 Bft)
- - 0 min -1,3 C 0,8 C 19,3 km/h
W-SW (3 Bft)
Durchschnitt _ -0,5 C 90 % 1021,4 hPa #0,0 mm 1,0 km/h (0 Bft) SW - #0 min. -2,0 C -0,5 C 8,4 km/h (2 Bft)